ITY255 LFSB-LIRP

Flight info

Callsign ITY255
Flight time 0h 56m
Altitude 37000
Route ELBEG Y715 AMRUP N491 TRA N850 ODINA DCT SRN DCT ROBAS DCT MISPO DCT OSBUL DCT EKPAL DCT MIVKI
Aircraft A320/M-SDE3FGHIRWY/LB1

Departure

Time 2026-04-21 18:49
Airport EuroAirport Basel–Mulhouse–Freiburg (LFSB)

Arrival

Time 2026-04-21 19:45
Airport Pisa International Airport (LIRP)
Time Latitude Longitude Altitude Speed Heading
2026-04-21 18:00 47.59891 7.52762 879 ft 0 kts 114°
2026-04-21 18:33 47.59892 7.52758 879 ft 2 kts 114°
2026-04-21 18:33 47.59897 7.52737 879 ft 2 kts 109°
2026-04-21 18:34 47.59902 7.52717 879 ft 2 kts 110°
2026-04-21 18:34 47.59907 7.52695 879 ft 2 kts 110°
2026-04-21 18:34 47.59912 7.52677 879 ft 1 kts 110°
2026-04-21 18:34 47.59913 7.52670 879 ft 1 kts 149°
2026-04-21 18:35 47.59918 7.52667 879 ft 0 kts 158°
2026-04-21 18:38 47.59899 7.52679 879 ft 6 kts 158°
2026-04-21 18:38 47.59857 7.52679 879 ft 7 kts 207°
2026-04-21 18:39 47.59810 7.52657 880 ft 7 kts 161°
2026-04-21 18:39 47.59762 7.52684 881 ft 7 kts 160°
2026-04-21 18:39 47.59713 7.52713 882 ft 8 kts 155°
2026-04-21 18:39 47.59670 7.52744 883 ft 0 kts 154°
2026-04-21 18:40 47.59659 7.52752 883 ft 10 kts 154°
2026-04-21 18:41 47.59587 7.52804 883 ft 12 kts 156°
2026-04-21 18:41 47.59508 7.52857 883 ft 13 kts 156°
2026-04-21 18:41 47.59423 7.52915 883 ft 14 kts 155°
2026-04-21 18:41 47.59334 7.52976 883 ft 15 kts 155°
2026-04-21 18:42 47.59240 7.53041 883 ft 15 kts 155°
2026-04-21 18:42 47.59182 7.53153 883 ft 12 kts 98°
2026-04-21 18:42 47.59151 7.53261 885 ft 11 kts 107°
2026-04-21 18:42 47.59156 7.53365 886 ft 10 kts 79°
2026-04-21 18:43 47.59173 7.53469 886 ft 11 kts 77°
2026-04-21 18:43 47.59193 7.53583 886 ft 12 kts 75°
2026-04-21 18:43 47.59215 7.53714 882 ft 15 kts 77°
2026-04-21 18:43 47.59234 7.53852 877 ft 0 kts 77°
2026-04-21 18:45 47.59236 7.53861 877 ft 0 kts 77°
2026-04-21 18:46 47.59242 7.53909 875 ft 9 kts 84°
2026-04-21 18:46 47.59217 7.54021 870 ft 14 kts 131°
2026-04-21 18:46 47.59131 7.54071 871 ft 13 kts 188°
2026-04-21 18:46 47.59104 7.54007 874 ft 9 kts 323°
2026-04-21 18:47 47.59137 7.53945 876 ft 7 kts 285°
2026-04-21 18:47 47.59137 7.53906 877 ft 0 kts 258°
2026-04-21 18:48 47.59134 7.53882 879 ft 17 kts 258°
2026-04-21 18:48 47.59050 7.53316 886 ft 94 kts 256°
2026-04-21 18:48 47.58847 7.52032 887 ft 161 kts 257°
2026-04-21 18:48 47.58541 7.50344 1399 ft 175 kts 258°
2026-04-21 18:49 47.58214 7.48606 2077 ft 183 kts 259°
2026-04-21 18:49 47.57889 7.46803 2816 ft 187 kts 257°
2026-04-21 18:49 47.57658 7.45540 3125 ft 198 kts 257°
2026-04-21 18:49 47.57155 7.42790 3777 ft 220 kts 256°
2026-04-21 18:50 47.56742 7.40535 4302 ft 238 kts 256°
2026-04-21 18:50 47.56296 7.38104 4835 ft 255 kts 256°
2026-04-21 18:50 47.55816 7.35495 5368 ft 273 kts 255°
2026-04-21 18:50 47.55306 7.32724 5989 ft 287 kts 254°
2026-04-21 18:51 47.54784 7.29890 6854 ft 290 kts 254°
2026-04-21 18:51 47.54259 7.27039 7799 ft 291 kts 255°
2026-04-21 18:51 47.53734 7.24197 8761 ft 289 kts 255°
2026-04-21 18:51 47.53211 7.21358 9498 ft 288 kts 256°
2026-04-21 18:52 47.52688 7.18526 9947 ft 286 kts 256°
2026-04-21 18:52 47.52165 7.15696 10282 ft 291 kts 255°
2026-04-21 18:52 47.51311 7.12891 10606 ft 314 kts 234°
2026-04-21 18:52 47.49663 7.10658 10974 ft 335 kts 211°
2026-04-21 18:53 47.47450 7.09479 11456 ft 349 kts 189°
2026-04-21 18:53 47.45008 7.09580 11946 ft 358 kts 168°
2026-04-21 18:53 47.42714 7.10986 12430 ft 362 kts 146°
2026-04-21 18:53 47.40791 7.13370 12926 ft 366 kts 135°
2026-04-21 18:54 47.38993 7.16026 13408 ft 369 kts 134°
2026-04-21 18:54 47.37209 7.18749 13870 ft 373 kts 133°
2026-04-21 18:54 47.35409 7.21508 14341 ft 376 kts 133°
2026-04-21 18:54 47.33602 7.24297 14815 ft 381 kts 133°
2026-04-21 18:55 47.31772 7.27130 15294 ft 385 kts 133°
2026-04-21 18:55 47.29930 7.29980 15770 ft 388 kts 133°
2026-04-21 18:55 47.28064 7.32867 16231 ft 393 kts 133°
2026-04-21 18:55 47.26184 7.35795 16702 ft 397 kts 131°
2026-04-21 18:56 47.24429 7.38931 17187 ft 402 kts 127°
2026-04-21 18:56 47.22748 7.42220 17671 ft 407 kts 126°
2026-04-21 18:56 47.21061 7.45559 18167 ft 411 kts 126°
2026-04-21 18:56 47.19348 7.48916 18654 ft 414 kts 126°
2026-04-21 18:57 47.17606 7.52302 19142 ft 420 kts 126°
2026-04-21 18:57 47.15832 7.55723 19607 ft 426 kts 127°
2026-04-21 18:57 47.14030 7.59186 20098 ft 432 kts 127°
2026-04-21 18:57 47.12201 7.62680 20594 ft 437 kts 127°
2026-04-21 18:58 47.10349 7.66220 21067 ft 442 kts 128°
2026-04-21 18:58 47.08473 7.69800 21538 ft 447 kts 128°
2026-04-21 18:58 47.06575 7.73408 22013 ft 451 kts 128°
2026-04-21 18:58 47.04658 7.77053 22452 ft 456 kts 128°
2026-04-21 18:59 47.02721 7.80728 22953 ft 460 kts 128°
2026-04-21 18:59 47.00767 7.84430 23447 ft 463 kts 128°
2026-04-21 18:59 46.98799 7.88152 23917 ft 466 kts 128°
2026-04-21 18:59 46.96814 7.91904 24423 ft 469 kts 128°
2026-04-21 19:00 46.94819 7.95668 24934 ft 472 kts 128°
2026-04-21 19:00 46.92813 7.99449 25428 ft 474 kts 128°
2026-04-21 19:00 46.90796 8.03245 25922 ft 476 kts 128°
2026-04-21 19:00 46.88773 8.07048 26425 ft 477 kts 128°
2026-04-21 19:01 46.86744 8.10862 26925 ft 478 kts 129°
2026-04-21 19:01 46.84714 8.14669 27422 ft 478 kts 128°
2026-04-21 19:01 46.82674 8.18480 27927 ft 478 kts 128°
2026-04-21 19:01 46.80639 8.22283 28414 ft 478 kts 129°
2026-04-21 19:02 46.78603 8.26082 28906 ft 477 kts 128°
2026-04-21 19:02 46.76571 8.29867 29398 ft 477 kts 129°
2026-04-21 19:02 46.74537 8.33656 29879 ft 476 kts 129°
2026-04-21 19:02 46.72514 8.37425 30375 ft 475 kts 129°
2026-04-21 19:03 46.70488 8.41187 30860 ft 473 kts 128°
2026-04-21 19:03 46.68474 8.44923 31329 ft 471 kts 128°
2026-04-21 19:03 46.66458 8.48647 31790 ft 469 kts 128°
2026-04-21 19:03 46.64390 8.52253 32256 ft 465 kts 136°
2026-04-21 19:04 46.62011 8.55351 32697 ft 457 kts 147°
2026-04-21 19:04 46.59370 8.57778 33173 ft 448 kts 158°
2026-04-21 19:04 46.56557 8.59517 33629 ft 435 kts 168°
2026-04-21 19:04 46.53686 8.60558 34108 ft 422 kts 179°
2026-04-21 19:05 46.50823 8.61029 34541 ft 411 kts 183°
2026-04-21 19:05 46.47992 8.61330 34784 ft 410 kts 183°
2026-04-21 19:05 46.45169 8.61655 35103 ft 407 kts 182°
2026-04-21 19:05 46.42349 8.62021 35220 ft 410 kts 182°
2026-04-21 19:06 46.39536 8.62408 35502 ft 408 kts 181°
2026-04-21 19:06 46.36709 8.62799 35616 ft 412 kts 181°
2026-04-21 19:06 46.33855 8.63200 35738 ft 416 kts 181°
2026-04-21 19:06 46.30981 8.63608 35915 ft 417 kts 181°
2026-04-21 19:07 46.28104 8.64016 36118 ft 418 kts 180°
2026-04-21 19:07 46.25215 8.64426 36369 ft 419 kts 180°
2026-04-21 19:07 46.22321 8.64833 36600 ft 420 kts 180°
2026-04-21 19:07 46.19415 8.65240 36799 ft 422 kts 181°
2026-04-21 19:08 46.16496 8.65713 36972 ft 427 kts 178°
2026-04-21 19:08 46.10645 8.67871 37010 ft 450 kts 160°
2026-04-21 19:08 46.07874 8.70052 36981 ft 462 kts 148°
2026-04-21 19:09 46.05354 8.72958 36973 ft 470 kts 141°
2026-04-21 19:09 46.00500 8.79393 36996 ft 483 kts 139°
2026-04-21 19:10 45.95524 8.85990 36976 ft 494 kts 140°
2026-04-21 19:10 45.90419 8.92658 36972 ft 502 kts 140°
2026-04-21 19:11 45.85230 8.99382 36969 ft 508 kts 140°
2026-04-21 19:11 45.79976 9.06161 36962 ft 513 kts 140°
2026-04-21 19:12 45.74826 9.13237 36954 ft 519 kts 132°
2026-04-21 19:12 45.70240 9.21184 36975 ft 521 kts 130°
2026-04-21 19:13 45.65730 9.29222 36963 ft 521 kts 129°
2026-04-21 19:13 45.61224 9.37277 36956 ft 522 kts 129°
2026-04-21 19:14 45.56703 9.45332 36965 ft 522 kts 129°
2026-04-21 19:14 45.52205 9.53380 36970 ft 522 kts 129°
2026-04-21 19:15 45.47696 9.61448 36972 ft 523 kts 129°
2026-04-21 19:15 45.43183 9.69505 36972 ft 523 kts 130°
2026-04-21 19:16 45.38679 9.77562 36998 ft 523 kts 130°
2026-04-21 19:16 45.34185 9.85625 36991 ft 523 kts 130°
2026-04-21 19:17 45.27432 9.97698 36977 ft 523 kts 130°
2026-04-21 19:17 45.22912 10.05724 36962 ft 523 kts 130°
2026-04-21 19:18 45.18390 10.13746 36979 ft 523 kts 130°
2026-04-21 19:18 45.13904 10.21733 36730 ft 516 kts 130°
2026-04-21 19:19 45.11696 10.25675 36267 ft 513 kts 130°
2026-04-21 19:19 45.09490 10.29586 35834 ft 510 kts 131°
2026-04-21 19:19 45.07009 10.33092 35339 ft 505 kts 144°
2026-04-21 19:19 45.04153 10.35874 34850 ft 497 kts 155°
2026-04-21 19:20 45.01066 10.37908 34331 ft 487 kts 166°
2026-04-21 19:20 44.97858 10.39192 33778 ft 477 kts 176°
2026-04-21 19:20 44.94627 10.39747 33267 ft 464 kts 185°
2026-04-21 19:20 44.91461 10.39614 32777 ft 451 kts 195°
2026-04-21 19:21 44.88437 10.38857 32278 ft 437 kts 204°
2026-04-21 19:21 44.85582 10.37596 31791 ft 428 kts 208°
2026-04-21 19:21 44.82803 10.36208 31292 ft 424 kts 209°
2026-04-21 19:21 44.80053 10.34823 30809 ft 420 kts 209°
2026-04-21 19:22 44.77315 10.33457 30306 ft 417 kts 209°
2026-04-21 19:22 44.74598 10.32116 29756 ft 415 kts 208°
2026-04-21 19:22 44.71896 10.30793 29236 ft 412 kts 208°
2026-04-21 19:22 44.69207 10.29486 28710 ft 409 kts 208°
2026-04-21 19:23 44.66536 10.28192 28186 ft 407 kts 208°
2026-04-21 19:23 44.63884 10.26911 27666 ft 404 kts 208°
2026-04-21 19:23 44.61250 10.25641 27174 ft 401 kts 208°
2026-04-21 19:23 44.58632 10.24378 26651 ft 398 kts 208°
2026-04-21 19:24 44.56029 10.23123 26120 ft 396 kts 208°
2026-04-21 19:24 44.53443 10.21881 25644 ft 393 kts 208°
2026-04-21 19:24 44.50873 10.20645 25153 ft 391 kts 208°
2026-04-21 19:24 44.48322 10.19421 24656 ft 388 kts 208°
2026-04-21 19:25 44.45786 10.18205 24174 ft 386 kts 208°
2026-04-21 19:25 44.43265 10.16996 23691 ft 383 kts 208°
2026-04-21 19:25 44.40765 10.15797 23257 ft 380 kts 208°
2026-04-21 19:25 44.38283 10.14610 22827 ft 377 kts 208°
2026-04-21 19:26 44.35823 10.13433 22400 ft 374 kts 208°
2026-04-21 19:26 44.33373 10.12264 21951 ft 372 kts 207°
2026-04-21 19:26 44.30938 10.11103 21512 ft 370 kts 207°
2026-04-21 19:26 44.28521 10.09949 21066 ft 368 kts 207°
2026-04-21 19:27 44.26122 10.08807 20645 ft 365 kts 207°
2026-04-21 19:27 44.23670 10.07877 20177 ft 372 kts 196°
2026-04-21 19:27 44.21073 10.07707 19713 ft 380 kts 182°
2026-04-21 19:27 44.18462 10.08318 19292 ft 383 kts 172°
2026-04-21 19:28 44.15901 10.09251 18888 ft 382 kts 169°
2026-04-21 19:28 44.13349 10.10228 18326 ft 383 kts 169°
2026-04-21 19:28 44.10784 10.11187 17732 ft 385 kts 169°
2026-04-21 19:28 44.08195 10.12127 17140 ft 387 kts 170°
2026-04-21 19:29 44.05593 10.13059 16527 ft 389 kts 169°
2026-04-21 19:29 44.02978 10.13926 15943 ft 388 kts 174°
2026-04-21 19:29 44.00322 10.14483 15350 ft 387 kts 176°
2026-04-21 19:29 43.97664 10.14949 14750 ft 387 kts 176°
2026-04-21 19:30 43.95004 10.15422 14152 ft 387 kts 176°
2026-04-21 19:30 43.92348 10.15919 13557 ft 387 kts 175°
2026-04-21 19:30 43.89692 10.16433 12959 ft 386 kts 175°
2026-04-21 19:30 43.87048 10.16955 12362 ft 385 kts 174°
2026-04-21 19:31 43.84415 10.17481 11764 ft 384 kts 174°
2026-04-21 19:31 43.81816 10.18005 11203 ft 371 kts 174°
2026-04-21 19:31 43.79351 10.18507 10922 ft 347 kts 174°
2026-04-21 19:31 43.77071 10.18973 10895 ft 317 kts 174°
2026-04-21 19:32 43.74980 10.19400 10839 ft 293 kts 175°
2026-04-21 19:32 43.73003 10.19796 10622 ft 283 kts 174°
2026-04-21 19:32 43.71081 10.20176 10319 ft 280 kts 175°
2026-04-21 19:32 43.69146 10.20558 9820 ft 283 kts 174°
2026-04-21 19:33 43.67206 10.20783 9346 ft 278 kts 190°
2026-04-21 19:33 43.65485 10.19871 9062 ft 261 kts 218°
2026-04-21 19:33 43.64103 10.18341 8796 ft 251 kts 224°
2026-04-21 19:33 43.62803 10.16794 8520 ft 245 kts 223°
2026-04-21 19:34 43.61498 10.15317 8243 ft 244 kts 221°
2026-04-21 19:34 43.60165 10.13878 7974 ft 245 kts 220°
2026-04-21 19:34 43.58810 10.12462 7700 ft 246 kts 219°
2026-04-21 19:34 43.57445 10.11053 7428 ft 246 kts 218°
2026-04-21 19:35 43.56074 10.09647 7153 ft 247 kts 218°
2026-04-21 19:35 43.53315 10.06824 6452 ft 253 kts 217°
2026-04-21 19:35 43.51892 10.05377 5979 ft 259 kts 218°
2026-04-21 19:36 43.50427 10.03888 5438 ft 267 kts 218°
2026-04-21 19:36 43.48925 10.02366 4893 ft 272 kts 217°
2026-04-21 19:36 43.47211 10.01320 4323 ft 276 kts 188°
2026-04-21 19:36 43.45322 10.01526 3773 ft 276 kts 159°
2026-04-21 19:37 43.43752 10.02957 3227 ft 274 kts 129°
2026-04-21 19:37 43.42901 10.05235 2682 ft 271 kts 100°
2026-04-21 19:37 43.42955 10.07760 2181 ft 265 kts 72°
2026-04-21 19:37 43.43834 10.09880 1965 ft 249 kts 47°
2026-04-21 19:38 43.44991 10.11511 1957 ft 229 kts 46°
2026-04-21 19:38 43.46064 10.13022 1959 ft 219 kts 46°
2026-04-21 19:38 43.47119 10.14528 1962 ft 219 kts 46°
2026-04-21 19:38 43.48142 10.15996 1946 ft 204 kts 46°
2026-04-21 19:39 43.49105 10.17385 1953 ft 200 kts 46°
2026-04-21 19:39 43.50061 10.18766 1987 ft 195 kts 46°
2026-04-21 19:39 43.50894 10.20116 2002 ft 175 kts 54°
2026-04-21 19:39 43.51554 10.21396 1940 ft 154 kts 52°
2026-04-21 19:40 43.52243 10.22493 1944 ft 151 kts 46°
2026-04-21 19:40 43.53009 10.23479 1952 ft 151 kts 41°
2026-04-21 19:40 43.53827 10.24385 1956 ft 151 kts 38°
2026-04-21 19:40 43.54659 10.25255 1960 ft 151 kts 38°
2026-04-21 19:41 43.55496 10.26121 1963 ft 151 kts 37°
2026-04-21 19:41 43.56334 10.26986 1962 ft 151 kts 37°
2026-04-21 19:41 43.57173 10.27852 1963 ft 151 kts 37°
2026-04-21 19:41 43.58014 10.28720 1961 ft 151 kts 38°
2026-04-21 19:42 43.58853 10.29588 1960 ft 151 kts 37°
2026-04-21 19:42 43.59693 10.30455 1841 ft 151 kts 38°
2026-04-21 19:42 43.60530 10.31319 1648 ft 151 kts 38°
2026-04-21 19:42 43.61367 10.32185 1455 ft 151 kts 38°
2026-04-21 19:43 43.62205 10.33050 1263 ft 151 kts 38°
2026-04-21 19:43 43.63041 10.33913 1066 ft 150 kts 38°
2026-04-21 19:43 43.63876 10.34776 866 ft 150 kts 37°
2026-04-21 19:43 43.64715 10.35643 669 ft 151 kts 37°
2026-04-21 19:44 43.65555 10.36510 468 ft 151 kts 37°
2026-04-21 19:44 43.66380 10.37362 289 ft 143 kts 37°
2026-04-21 19:44 43.67156 10.38155 106 ft 136 kts 36°
2026-04-21 19:44 43.67879 10.38873 4 ft 117 kts 37°
2026-04-21 19:45 43.68280 10.39308 6 ft 36 kts 37°
2026-04-21 19:45 43.68554 10.39594 7 ft 56 kts 38°
2026-04-21 19:45 43.68765 10.39745 7 ft 28 kts 333°
2026-04-21 19:45 43.68880 10.39562 7 ft 13 kts 300°
2026-04-21 19:46 43.68886 10.39547 7 ft 0 kts 300°
2026-04-21 19:46 43.68867 10.39453 7 ft 10 kts 185°
2026-04-21 19:46 43.68826 10.39505 7 ft 7 kts 112°
2026-04-21 19:47 43.68845 10.39584 7 ft 14 kts 45°
2026-04-21 19:47 43.68930 10.39670 7 ft 16 kts 34°
2026-04-21 19:47 43.69024 10.39760 8 ft 17 kts 36°
2026-04-21 19:47 43.69118 10.39861 8 ft 17 kts 37°
2026-04-21 19:48 43.69222 10.39968 8 ft 19 kts 37°
2026-04-21 19:48 43.69330 10.40075 8 ft 19 kts 27°
2026-04-21 19:48 43.69460 10.40089 8 ft 19 kts 354°
2026-04-21 19:48 43.69587 10.40063 10 ft 18 kts 352°
2026-04-21 19:49 43.69681 10.40028 11 ft 13 kts 343°
2026-04-21 19:49 43.69739 10.40028 11 ft 0 kts